Leesburg, VA

11:13 AM EST on December 15, 2019 (GMT -0500)
Leesburg Executive

Weather History for KJYO - November, 2019

Change the Weather History Date:

Thursday, November 14, 2019

  Actual Average (WUND) Record (WUND)
Temperature  
Mean Temperature 32 °F -  
Max Temperature 41 °F - - (-1)
Min Temperature 24 °F - - (-1)
Degree Days  
Heating Degree Days 32    
Moisture  
Dew Point 21 °F    
Average Humidity 64    
Maximum Humidity 81    
Minimum Humidity 45    
Precipitation  
Precipitation 0.00 in - - ()
Sea Level Pressure  
Sea Level Pressure 30.36 in    
Wind  
Wind Speed 7 mph (South)    
Max Wind Speed 14 mph    
Max Gust Speed 18 mph    
Visibility 10 miles    
Events      
Averages and records for this station are not official NWS values.
T = Trace of Precipitation, MM = Missing Value Source: NWS Daily Summary

Daily Weather History Graph

Daily Weather History Graph

Search for Another Location

Airport or City:

Astronomy

Nov. 14, 2019 Rise Set
Actual Time 6:51 AM EST 4:56 PM EST
Civil Twilight 6:23 AM EST 5:25 PM EST
Nautical Twilight 5:51 AM EST 5:57 PM EST
Astronomical Twilight 5:19 AM EST 6:29 PM EST
Moon 6:41 PM EST (11/14) 8:44 AM EST (11/14)
Length of Visible Light 11h 02m
Length of Day
10h 05m
Waning Gibbous, 95% of the Moon is Illuminated
Nov 14
Waning Gibbous
Nov 19
Last Quarter
Nov 26
New
Dec 4
First Quarter
Dec 12
Full

Hourly Weather History & Observations

Time (EST) Temp. Windchill Dew Point Humidity Pressure Visibility Wind Dir Wind Speed Gust Speed Precip Events Conditions
12:15 AM 26.6 °F 18.2 °F 17.6 °F 69% 30.41 in 10.0 mi South 8.1 mph - N/A   Clear
12:35 AM 26.6 °F 18.2 °F 17.6 °F 69% 30.41 in 10.0 mi South 8.1 mph - N/A   Clear
12:55 AM 28.4 °F 20.4 °F 17.6 °F 64% 30.40 in 10.0 mi South 8.1 mph - N/A   Clear
1:15 AM 28.4 °F 18.5 °F 17.6 °F 64% 30.40 in 10.0 mi South 11.5 mph - N/A   Clear
1:35 AM 26.6 °F 18.2 °F 17.6 °F 69% 30.40 in 10.0 mi South 8.1 mph - N/A   Clear
1:55 AM 26.6 °F 17.5 °F 17.6 °F 69% 30.40 in 10.0 mi South 9.2 mph - N/A   Clear
2:15 AM 26.6 °F 20.0 °F 17.6 °F 69% 30.40 in 10.0 mi South 5.8 mph - N/A   Clear
2:35 AM 26.6 °F 21.2 °F 17.6 °F 69% 30.40 in 10.0 mi South 4.6 mph - N/A   Clear
2:55 AM 26.6 °F 20.0 °F 17.6 °F 69% 30.39 in 10.0 mi South 5.8 mph - N/A   Clear
3:15 AM 24.8 °F 17.9 °F 17.6 °F 74% 30.39 in 10.0 mi South 5.8 mph - N/A   Clear
3:35 AM 26.6 °F 21.2 °F 17.6 °F 69% 30.39 in 10.0 mi South 4.6 mph - N/A   Clear
3:55 AM 24.8 °F 17.9 °F 17.6 °F 74% 30.38 in 10.0 mi South 5.8 mph - N/A   Clear
4:15 AM 24.8 °F 17.9 °F 17.6 °F 74% 30.39 in 10.0 mi South 5.8 mph - N/A   Clear
4:35 AM 26.6 °F 18.2 °F 17.6 °F 69% 30.39 in 10.0 mi South 8.1 mph - N/A   Clear
4:55 AM 26.6 °F 19.1 °F 17.6 °F 69% 30.39 in 10.0 mi South 6.9 mph - N/A   Clear
5:15 AM 26.6 °F 17.5 °F 17.6 °F 69% 30.39 in 10.0 mi South 9.2 mph - N/A   Clear
5:35 AM 26.6 °F 19.1 °F 17.6 °F 69% 30.39 in 10.0 mi South 6.9 mph - N/A   Clear
5:55 AM 26.6 °F 16.8 °F 19.4 °F 74% 30.39 in 10.0 mi South 10.4 mph - N/A   Clear
6:15 AM 26.6 °F 18.2 °F 19.4 °F 74% 30.40 in 10.0 mi South 8.1 mph - N/A   Clear
6:35 AM 24.8 °F 17.9 °F 19.4 °F 80% 30.40 in 10.0 mi South 5.8 mph - N/A   Clear
6:55 AM 26.6 °F 21.2 °F 19.4 °F 74% 30.40 in 10.0 mi South 4.6 mph - N/A   Clear
7:35 AM 26.6 °F 21.2 °F 19.4 °F 74% 30.41 in 10.0 mi South 4.6 mph - N/A   Clear
7:55 AM 26.6 °F 21.2 °F 19.4 °F 74% 30.41 in 10.0 mi South 4.6 mph - N/A   Clear
8:35 AM 28.4 °F 21.2 °F 21.2 °F 74% 30.42 in 10.0 mi South 6.9 mph - N/A   Clear
8:55 AM 30.2 °F 24.3 °F 21.2 °F 69% 30.42 in 10.0 mi South 5.8 mph - N/A   Clear
9:15 AM 32.0 °F 26.4 °F 21.2 °F 64% 30.41 in 10.0 mi South 5.8 mph - N/A   Clear
9:35 AM 32.0 °F 26.4 °F 21.2 °F 64% 30.40 in 10.0 mi South 5.8 mph - N/A   Clear
9:55 AM 32.0 °F 25.6 °F 21.2 °F 64% 30.40 in 10.0 mi South 6.9 mph - N/A   Clear
10:15 AM 32.0 °F 25.6 °F 21.2 °F 64% 30.40 in 10.0 mi South 6.9 mph - N/A   Clear
10:35 AM 32.0 °F 25.6 °F 21.2 °F 64% 30.40 in 10.0 mi South 6.9 mph - N/A   Clear
10:55 AM 33.8 °F 27.7 °F 21.2 °F 60% 30.39 in 10.0 mi South 6.9 mph - N/A   Clear
11:15 AM 33.8 °F 26.4 °F 21.2 °F 60% 30.39 in 10.0 mi South 9.2 mph - N/A   Clear
11:55 AM 37.4 °F 30.8 °F 21.2 °F 52% 30.36 in 10.0 mi South 9.2 mph - N/A   Clear
12:15 PM 37.4 °F 28.9 °F 21.2 °F 52% 30.35 in 10.0 mi South 13.8 mph - N/A   Clear
12:35 PM 39.2 °F 35.0 °F 21.2 °F 49% 30.34 in 10.0 mi South 5.8 mph - N/A   Clear
12:55 PM 39.2 °F 31.6 °F 21.2 °F 49% 30.33 in 10.0 mi South 12.7 mph 18.4 mph N/A   Clear
1:15 PM 41.0 °F 35.2 °F 21.2 °F 45% 30.33 in 10.0 mi SSW 9.2 mph 17.3 mph N/A   Clear
1:35 PM 41.0 °F 35.2 °F 21.2 °F 45% 30.32 in 10.0 mi South 9.2 mph - N/A   Clear
1:55 PM 41.0 °F 34.3 °F 21.2 °F 45% 30.32 in 10.0 mi South 11.5 mph - N/A   Clear
2:15 PM 41.0 °F 35.2 °F 21.2 °F 45% 30.31 in 10.0 mi South 9.2 mph - N/A   Clear
2:35 PM 41.0 °F 37.1 °F 21.2 °F 45% 30.31 in 10.0 mi South 5.8 mph - N/A   Clear
2:55 PM 41.0 °F 34.7 °F 23.0 °F 49% 30.32 in 10.0 mi South 10.4 mph - N/A   Clear
3:15 PM 41.0 °F 35.8 °F 21.2 °F 45% 30.32 in 10.0 mi South 8.1 mph - N/A   Clear
3:35 PM 41.0 °F 37.1 °F 23.0 °F 49% 30.32 in 10.0 mi South 5.8 mph - N/A   Clear
3:55 PM 41.0 °F 35.8 °F 23.0 °F 49% 30.32 in 10.0 mi SSE 8.1 mph - N/A   Clear
4:15 PM 41.0 °F 36.4 °F 23.0 °F 49% 30.32 in 10.0 mi South 6.9 mph - N/A   Clear
4:35 PM 41.0 °F 38.0 °F 23.0 °F 49% 30.32 in 10.0 mi South 4.6 mph - N/A   Clear
4:55 PM 39.2 °F 35.0 °F 23.0 °F 52% 30.31 in 10.0 mi South 5.8 mph - N/A   Scattered Clouds
5:15 PM 37.4 °F 33.8 °F 23.0 °F 56% 30.32 in 10.0 mi South 4.6 mph - N/A   Scattered Clouds
5:35 PM 37.4 °F 34.9 °F 21.2 °F 52% 30.32 in 10.0 mi South 3.5 mph - N/A   Clear
5:55 PM 37.4 °F - 21.2 °F 52% 30.33 in 10.0 mi Calm Calm - N/A   Clear
6:15 PM 35.6 °F - 21.2 °F 56% 30.33 in 10.0 mi Calm Calm - N/A   Clear
6:35 PM 35.6 °F 32.8 °F 23.0 °F 60% 30.33 in 10.0 mi South 3.5 mph - N/A   Clear
6:55 PM 33.8 °F 30.8 °F 23.0 °F 65% 30.32 in 10.0 mi South 3.5 mph - N/A   Scattered Clouds
7:35 PM 33.8 °F - 24.8 °F 70% 30.33 in 10.0 mi Calm Calm - N/A   Overcast
7:55 PM 33.8 °F - 24.8 °F 70% 30.33 in 10.0 mi Calm Calm - N/A   Overcast
8:15 PM 35.6 °F - 24.8 °F 65% 30.32 in 10.0 mi Calm Calm - N/A   Overcast
8:35 PM 33.8 °F - 26.6 °F 75% 30.32 in 10.0 mi Calm Calm - N/A   Overcast
8:55 PM 33.8 °F - 28.4 °F 81% 30.32 in 10.0 mi Calm Calm - N/A   Overcast
9:35 PM 33.8 °F - 24.8 °F 70% 30.32 in 10.0 mi Calm Calm - N/A   Overcast
9:55 PM 35.6 °F - 23.0 °F 60% 30.32 in 10.0 mi Calm Calm - N/A   Overcast
10:15 PM 33.8 °F - 24.8 °F 70% 30.32 in 10.0 mi Calm Calm - N/A   Overcast
10:35 PM 33.8 °F - 26.6 °F 75% 30.33 in 10.0 mi Calm Calm - N/A   Overcast
10:55 PM 33.8 °F - 26.6 °F 75% 30.32 in 10.0 mi Calm Calm - N/A   Overcast
11:15 PM 32.0 °F - 26.6 °F 80% 30.31 in 10.0 mi Calm Calm - N/A   Mostly Cloudy
11:35 PM 32.0 °F - 26.6 °F 80% 30.31 in 10.0 mi Calm Calm - N/A   Scattered Clouds
11:55 PM 32.0 °F - 26.6 °F 80% 30.31 in 10.0 mi Calm Calm - N/A   Clear